Multibeam Report for CV10_02


Ship Name: Celtic Voyager
Chief Scientist: Sheehan, Kevin
Source Organization: Geological Survey of Ireland (GSI)
Start Date: 2010-07-12
End Date: 2010-07-26


View ISO Metadata

Visit the full NCEI Bathymetry Viewer


Multibeam Bathymetry

Cruise Details

Project: INFOMAR
Instrument: Simrad EM3002

Data Quality

Number of Files: 274
Number of Records: 3832797
BATHYMETRY DATA Quantity Percentage
Number of Beams 1946662604 100%
Number of Good Beams 1939192194 99.62%
Number of Zero Beams 7470410 0.38%
Number of Flagged Beams 0 0%
AMPLITUDE DATA Quantity Percentage
Number of Beams 1946662604 100%
Number of Good Beams 1939192194 99.62%
Number of Zero Beams 7470410 0.38%
Number of Flagged Beams 0 0%
SIDESCAN DATA Quantity Percentage
Number of Pixels 7847962624 100%
Number of Good Pixels 3283730414 41.84%
Number of Zero Pixels 0 0%
Number of Flagged Pixels 4564232210 58.16%

Navigation Totals

Total Time: 205.5345 hours
Total Track Length: 2794.6142 km
Average Speed: 13.597 km/hr (7.3418 knots)

Cruise Bounds

Northern Extent: 52.1674
Southern Extent: 51.759
Western Extent: -8.1461
Eastern Extent: -6.5076

Limits

Minimum Sonar Depth 0.24 Maximum Sonar Depth 5.91
Minimum Altitude 6.73 Maximum Altitude 111.68
Minimum Depth 9.39 Maximum Depth 127.45
Minimum Amplitude 0 Maximum Amplitude 15.5
Minimum Sidescan 0 Maximum Sidescan 29.59

File Information

Full Resolution Bathymetry as collected (raw): 273

Files File Size Description
0626_20100712_120230_Celticvoyager.all.mb56.gz 291.60MB Simrad multibeam vendor format
0627_20100712_130638_Celticvoyager.all.mb56.gz 200.45MB Simrad multibeam vendor format
0628_20100712_140801_Celticvoyager.all.mb56.gz 282.06MB Simrad multibeam vendor format
0629_20100712_152014_Celticvoyager.all.mb56.gz 253.79MB Simrad multibeam vendor format
0630_20100712_162150_Celticvoyager.all.mb56.gz 243.96MB Simrad multibeam vendor format
0631_20100712_172240_Celticvoyager.all.mb56.gz 271.23MB Simrad multibeam vendor format
0632_20100712_182551_Celticvoyager.all.mb56.gz 264.50MB Simrad multibeam vendor format
0633_20100712_192923_Celticvoyager.all.mb56.gz 328.43MB Simrad multibeam vendor format
0634_20100712_212038_Celticvoyager.all.mb56.gz 312.85MB Simrad multibeam vendor format
0635_20100712_222859_Celticvoyager.all.mb56.gz 302.76MB Simrad multibeam vendor format
0636_20100712_233053_Celticvoyager.all.mb56.gz 280.20MB Simrad multibeam vendor format
0637_20100713_003645_Celticvoyager.all.mb56.gz 335.20MB Simrad multibeam vendor format
0638_20100713_014335_Celticvoyager.all.mb56.gz 274.57MB Simrad multibeam vendor format
0639_20100713_024051_Celticvoyager.all.mb56.gz 308.16MB Simrad multibeam vendor format
0640_20100713_034257_Celticvoyager.all.mb56.gz 251.54MB Simrad multibeam vendor format
0641_20100713_043450_Celticvoyager.all.mb56.gz 56.75MB Simrad multibeam vendor format
0642_20100713_045925_Celticvoyager.all.mb56.gz 338.40MB Simrad multibeam vendor format
0643_20100713_060623_Celticvoyager.all.mb56.gz 91.57MB Simrad multibeam vendor format
0644_20100713_062922_Celticvoyager.all.mb56.gz 265.04MB Simrad multibeam vendor format
0645_20100713_072833_Celticvoyager.all.mb56.gz 368.96MB Simrad multibeam vendor format
0646_20100713_084412_Celticvoyager.all.mb56.gz 110.25MB Simrad multibeam vendor format
0647_20100713_090641_Celticvoyager.all.mb56.gz 96.21MB Simrad multibeam vendor format
0647_20100713_092717_Celticvoyager.all.mb56.gz 95.39MB Simrad multibeam vendor format
0648_20100713_095001_Celticvoyager.all.mb56.gz 78.19MB Simrad multibeam vendor format
0648_20100713_100727_Celticvoyager.all.mb56.gz 42.53MB Simrad multibeam vendor format
0648_20100713_101742_Celticvoyager.all.mb56.gz 35.27MB Simrad multibeam vendor format
0648_20100713_102756_Celticvoyager.all.mb56.gz 57.29MB Simrad multibeam vendor format
0649_20100713_104551_Celticvoyager.all.mb56.gz 229.45MB Simrad multibeam vendor format
0650_20100713_112814_Celticvoyager.all.mb56.gz 113.45MB Simrad multibeam vendor format
0651_20100713_114838_Celticvoyager.all.mb56.gz 170.35MB Simrad multibeam vendor format
0652_20100713_121812_Celticvoyager.all.mb56.gz 286.44MB Simrad multibeam vendor format
0653_20100713_130423_Celticvoyager.all.mb56.gz 295.49MB Simrad multibeam vendor format
0654_20100713_140130_Celticvoyager.all.mb56.gz 207.58MB Simrad multibeam vendor format
0655_20100713_143531_Celticvoyager.all.mb56.gz 227.75MB Simrad multibeam vendor format
0656_20100713_151342_Celticvoyager.all.mb56.gz 184.44MB Simrad multibeam vendor format
0657_20100713_154521_Celticvoyager.all.mb56.gz 161.19MB Simrad multibeam vendor format
0658_20100713_161257_Celticvoyager.all.mb56.gz 174.15MB Simrad multibeam vendor format
0659_20100713_164529_Celticvoyager.all.mb56.gz 132.20MB Simrad multibeam vendor format
0660_20100713_171521_Celticvoyager.all.mb56.gz 113.90MB Simrad multibeam vendor format
0661_20100713_173732_Celticvoyager.all.mb56.gz 240.88MB Simrad multibeam vendor format
0662_20100713_182947_Celticvoyager.all.mb56.gz 63.57MB Simrad multibeam vendor format
0662a_20100713_184606_Celticvoyager.all.mb56.gz 8.16MB Simrad multibeam vendor format
0662b_20100713_185138_Celticvoyager.all.mb56.gz 2.28MB Simrad multibeam vendor format
0662c_20100713_185817_Celticvoyager.all.mb56.gz 57.95MB Simrad multibeam vendor format
0663_20100713_191643_Celticvoyager.all.mb56.gz 272.88MB Simrad multibeam vendor format
0664_20100713_200121_Celticvoyager.all.mb56.gz 282.20MB Simrad multibeam vendor format
0665_20100713_205109_Celticvoyager.all.mb56.gz 312.36MB Simrad multibeam vendor format
0666_20100713_231035_Celticvoyager.all.mb56.gz 330.70MB Simrad multibeam vendor format
0667_20100714_000555_Celticvoyager.all.mb56.gz 31.69MB Simrad multibeam vendor format
0667_20100714_001857_Celticvoyager.all.mb56.gz 351.87MB Simrad multibeam vendor format
0668_20100714_011810_Celticvoyager.all.mb56.gz 461.95MB Simrad multibeam vendor format
0669_20100714_024105_Celticvoyager.all.mb56.gz 332.82MB Simrad multibeam vendor format
0670_20100714_034220_Celticvoyager.all.mb56.gz 541.33MB Simrad multibeam vendor format
0671_20100714_051425_Celticvoyager.all.mb56.gz 424.27MB Simrad multibeam vendor format
0672_20100714_062227_Celticvoyager.all.mb56.gz 281.65MB Simrad multibeam vendor format
0673_20100714_070823_Celticvoyager.all.mb56.gz 182.86MB Simrad multibeam vendor format
0674_20100714_074435_Celticvoyager.all.mb56.gz 100.72MB Simrad multibeam vendor format
0675_20100714_080012_Celticvoyager.all.mb56.gz 135.10MB Simrad multibeam vendor format
0676_20100714_082229_Celticvoyager.all.mb56.gz 103.21MB Simrad multibeam vendor format
0677_20100714_083856_Celticvoyager.all.mb56.gz 141.60MB Simrad multibeam vendor format
0678_20100714_085949_Celticvoyager.all.mb56.gz 124.01MB Simrad multibeam vendor format
0679_20100714_092011_Celticvoyager.all.mb56.gz 149.71MB Simrad multibeam vendor format
0680_20100714_094140_Celticvoyager.all.mb56.gz 116.44MB Simrad multibeam vendor format
0681_20100714_100006_Celticvoyager.all.mb56.gz 134.69MB Simrad multibeam vendor format
0682_20100714_102133_Celticvoyager.all.mb56.gz 126.89MB Simrad multibeam vendor format
0683_20100714_104146_Celticvoyager.all.mb56.gz 180.29MB Simrad multibeam vendor format
0684_20100714_110841_Celticvoyager.all.mb56.gz 194.23MB Simrad multibeam vendor format
0685_20100714_113340_Celticvoyager.all.mb56.gz 226.06MB Simrad multibeam vendor format
0686_20100714_120254_Celticvoyager.all.mb56.gz 220.30MB Simrad multibeam vendor format
0687_20100714_123006_Celticvoyager.all.mb56.gz 281.53MB Simrad multibeam vendor format
0688_20100714_130049_Celticvoyager.all.mb56.gz 250.14MB Simrad multibeam vendor format
0689_20100714_133132_Celticvoyager.all.mb56.gz 229.07MB Simrad multibeam vendor format
0690_20100714_135747_Celticvoyager.all.mb56.gz 203.37MB Simrad multibeam vendor format
0691_20100714_142202_Celticvoyager.all.mb56.gz 201.97MB Simrad multibeam vendor format
0692_20100714_144818_Celticvoyager.all.mb56.gz 111.97MB Simrad multibeam vendor format
0693_20100714_150552_Celticvoyager.all.mb56.gz 229.70MB Simrad multibeam vendor format
0694_20100714_153722_Celticvoyager.all.mb56.gz 442.26MB Simrad multibeam vendor format
0695_20100714_163449_Celticvoyager.all.mb56.gz 448.62MB Simrad multibeam vendor format
0696_20100714_173422_Celticvoyager.all.mb56.gz 473.99MB Simrad multibeam vendor format
0697_20100714_183849_Celticvoyager.all.mb56.gz 408.48MB Simrad multibeam vendor format
0698_20100714_193343_Celticvoyager.all.mb56.gz 476.30MB Simrad multibeam vendor format
0699_20100714_204128_Celticvoyager.all.mb56.gz 387.00MB Simrad multibeam vendor format
0700_20100714_213539_Celticvoyager.all.mb56.gz 462.23MB Simrad multibeam vendor format
0701_20100714_223727_Celticvoyager.all.mb56.gz 351.75MB Simrad multibeam vendor format
0702_20100714_233246_Celticvoyager.all.mb56.gz 419.98MB Simrad multibeam vendor format
0703_20100715_002833_Celticvoyager.all.mb56.gz 435.60MB Simrad multibeam vendor format
0704_20100715_012607_Celticvoyager.all.mb56.gz 402.26MB Simrad multibeam vendor format
0705_20100716_141140_Celticvoyager.all.mb56.gz 550.02MB Simrad multibeam vendor format
0706_20100716_153115_Celticvoyager.all.mb56.gz 489.05MB Simrad multibeam vendor format
0707_20100716_164900_Celticvoyager.all.mb56.gz 213.55MB Simrad multibeam vendor format
0708_20100716_171150_Celticvoyager.all.mb56.gz 488.66MB Simrad multibeam vendor format
0709_20100716_181059_Celticvoyager.all.mb56.gz 427.13MB Simrad multibeam vendor format
0710_20100716_190233_Celticvoyager.all.mb56.gz 467.71MB Simrad multibeam vendor format
0711_20100716_200046_Celticvoyager.all.mb56.gz 397.58MB Simrad multibeam vendor format
0712_20100716_210327_Celticvoyager.all.mb56.gz 232.13MB Simrad multibeam vendor format
0713_20100716_214507_Celticvoyager.all.mb56.gz 370.27MB Simrad multibeam vendor format
0714_20100716_223422_Celticvoyager.all.mb56.gz 515.93MB Simrad multibeam vendor format
0715_20100716_233846_Celticvoyager.all.mb56.gz 425.17MB Simrad multibeam vendor format
0716_20100717_003134_Celticvoyager.all.mb56.gz 470.71MB Simrad multibeam vendor format
0717_20100717_013052_Celticvoyager.all.mb56.gz 417.00MB Simrad multibeam vendor format
0718_20100717_022809_Celticvoyager.all.mb56.gz 479.01MB Simrad multibeam vendor format
0719_20100717_032831_Celticvoyager.all.mb56.gz 314.57MB Simrad multibeam vendor format
0720_20100717_041509_Celticvoyager.all.mb56.gz 534.99MB Simrad multibeam vendor format
0721_20100717_051818_Celticvoyager.all.mb56.gz 360.51MB Simrad multibeam vendor format
0722_20100717_062112_Celticvoyager.all.mb56.gz 567.95MB Simrad multibeam vendor format
0723_20100717_073557_Celticvoyager.all.mb56.gz 402.60MB Simrad multibeam vendor format
0724_20100717_083108_Celticvoyager.all.mb56.gz 607.22MB Simrad multibeam vendor format
0725_20100717_095157_Celticvoyager.all.mb56.gz 86.61MB Simrad multibeam vendor format
0726_20100717_100324_Celticvoyager.all.mb56.gz 385.62MB Simrad multibeam vendor format
0727_20100717_110248_Celticvoyager.all.mb56.gz 8.89MB Simrad multibeam vendor format
0727_20100717_110737_Celticvoyager.all.mb56.gz 248.05MB Simrad multibeam vendor format
0728_20100717_115238_Celticvoyager.all.mb56.gz 301.64MB Simrad multibeam vendor format
0729_20100717_123933_Celticvoyager.all.mb56.gz 255.55MB Simrad multibeam vendor format
0730_20100717_132002_Celticvoyager.all.mb56.gz 293.85MB Simrad multibeam vendor format
0731_20100717_140522_Celticvoyager.all.mb56.gz 259.27MB Simrad multibeam vendor format
0732_20100717_144346_Celticvoyager.all.mb56.gz 189.21MB Simrad multibeam vendor format
0733_20100717_150424_Celticvoyager.all.mb56.gz 429.81MB Simrad multibeam vendor format
0734_20100717_155852_Celticvoyager.all.mb56.gz 534.22MB Simrad multibeam vendor format
0735_20100717_170929_Celticvoyager.all.mb56.gz 402.79MB Simrad multibeam vendor format
0736_20100717_180334_Celticvoyager.all.mb56.gz 582.33MB Simrad multibeam vendor format
0737_20100717_192454_Celticvoyager.all.mb56.gz 484.23MB Simrad multibeam vendor format
0738_20100717_203743_Celticvoyager.all.mb56.gz 463.78MB Simrad multibeam vendor format
0739_20100720_092934_Celticvoyager.all.mb56.gz 64.90MB Simrad multibeam vendor format
0739_20100720_094500_Celticvoyager.all.mb56.gz 11.25MB Simrad multibeam vendor format
0740_20100720_095121_Celticvoyager.all.mb56.gz 277.56MB Simrad multibeam vendor format
0741_20100720_102935_Celticvoyager.all.mb56.gz 155.13MB Simrad multibeam vendor format
0742_20100720_105311_Celticvoyager.all.mb56.gz 142.02MB Simrad multibeam vendor format
0743_20100720_111737_Celticvoyager.all.mb56.gz 112.15MB Simrad multibeam vendor format
0744_20100720_113409_Celticvoyager.all.mb56.gz 165.32MB Simrad multibeam vendor format
0745_20100720_115953_Celticvoyager.all.mb56.gz 132.84MB Simrad multibeam vendor format
0746_20100720_122152_Celticvoyager.all.mb56.gz 172.16MB Simrad multibeam vendor format
0747_20100720_124711_Celticvoyager.all.mb56.gz 164.85MB Simrad multibeam vendor format
0748_20100720_131147_Celticvoyager.all.mb56.gz 201.96MB Simrad multibeam vendor format
0749_20100720_134056_Celticvoyager.all.mb56.gz 131.49MB Simrad multibeam vendor format
0750_20100720_140347_Celticvoyager.all.mb56.gz 124.67MB Simrad multibeam vendor format
0751_20100720_142228_Celticvoyager.all.mb56.gz 138.38MB Simrad multibeam vendor format
0752_20100720_144534_Celticvoyager.all.mb56.gz 90.52MB Simrad multibeam vendor format
0753_20100720_150236_Celticvoyager.all.mb56.gz 104.33MB Simrad multibeam vendor format
0754_20100720_151958_Celticvoyager.all.mb56.gz 51.01MB Simrad multibeam vendor format
0755_20100720_153139_Celticvoyager.all.mb56.gz 118.43MB Simrad multibeam vendor format
0756_20100720_154652_Celticvoyager.all.mb56.gz 119.68MB Simrad multibeam vendor format
0757_20100720_160419_Celticvoyager.all.mb56.gz 7.70MB Simrad multibeam vendor format
0758_20100720_163959_Celticvoyager.all.mb56.gz 95.24MB Simrad multibeam vendor format
0759_20100720_165620_Celticvoyager.all.mb56.gz 134.71MB Simrad multibeam vendor format
0760_20100720_171559_Celticvoyager.all.mb56.gz 89.72MB Simrad multibeam vendor format
0761_20100720_172939_Celticvoyager.all.mb56.gz 110.97MB Simrad multibeam vendor format
0762_20100720_174552_Celticvoyager.all.mb56.gz 79.40MB Simrad multibeam vendor format
0763_20100720_175525_Celticvoyager.all.mb56.gz 230.84MB Simrad multibeam vendor format
0764_20100720_184012_Celticvoyager.all.mb56.gz 126.26MB Simrad multibeam vendor format
0765_20100720_185944_Celticvoyager.all.mb56.gz 106.02MB Simrad multibeam vendor format
0766_20100720_191655_Celticvoyager.all.mb56.gz 135.19MB Simrad multibeam vendor format
0767_20100720_195404_Celticvoyager.all.mb56.gz 391.51MB Simrad multibeam vendor format
0768_20100720_205300_Celticvoyager.all.mb56.gz 375.91MB Simrad multibeam vendor format
0769_20100720_215103_Celticvoyager.all.mb56.gz 373.26MB Simrad multibeam vendor format
0770_20100720_224818_Celticvoyager.all.mb56.gz 370.24MB Simrad multibeam vendor format
0771_20100720_234711_Celticvoyager.all.mb56.gz 410.07MB Simrad multibeam vendor format
0772_20100721_005346_Celticvoyager.all.mb56.gz 185.03MB Simrad multibeam vendor format
0773_20100721_012822_Celticvoyager.all.mb56.gz 196.07MB Simrad multibeam vendor format
0774_20100721_020155_Celticvoyager.all.mb56.gz 402.45MB Simrad multibeam vendor format
0775_20100721_030645_Celticvoyager.all.mb56.gz 337.69MB Simrad multibeam vendor format
0776_20100721_040001_Celticvoyager.all.mb56.gz 379.09MB Simrad multibeam vendor format
0777_20100721_050123_Celticvoyager.all.mb56.gz 114.33MB Simrad multibeam vendor format
0778_20100721_052152_Celticvoyager.all.mb56.gz 346.26MB Simrad multibeam vendor format
0779_20100721_061824_Celticvoyager.all.mb56.gz 365.16MB Simrad multibeam vendor format
0780_20100721_071609_Celticvoyager.all.mb56.gz 385.34MB Simrad multibeam vendor format
0781_20100721_081656_Celticvoyager.all.mb56.gz 354.54MB Simrad multibeam vendor format
0782_20100721_091238_Celticvoyager.all.mb56.gz 441.05MB Simrad multibeam vendor format
0783_20100721_102738_Celticvoyager.all.mb56.gz 82.46MB Simrad multibeam vendor format
0784_20100721_104152_Celticvoyager.all.mb56.gz 214.43MB Simrad multibeam vendor format
0785_20100721_111654_Celticvoyager.all.mb56.gz 42.69MB Simrad multibeam vendor format
0786_20100721_112902_Celticvoyager.all.mb56.gz 460.14MB Simrad multibeam vendor format
0787_20100721_124302_Celticvoyager.all.mb56.gz 222.22MB Simrad multibeam vendor format
0788_20100721_132234_Celticvoyager.all.mb56.gz 250.56MB Simrad multibeam vendor format
0789_20100721_140414_Celticvoyager.all.mb56.gz 195.34MB Simrad multibeam vendor format
0790_20100721_144106_Celticvoyager.all.mb56.gz 157.98MB Simrad multibeam vendor format
0791_20100721_150317_Celticvoyager.all.mb56.gz 123.35MB Simrad multibeam vendor format
0792_20100721_152215_Celticvoyager.all.mb56.gz 132.97MB Simrad multibeam vendor format
0793_20100721_154101_Celticvoyager.all.mb56.gz 121.25MB Simrad multibeam vendor format
0794_20100721_155652_Celticvoyager.all.mb56.gz 180.89MB Simrad multibeam vendor format
0795_20100721_162230_Celticvoyager.all.mb56.gz 116.29MB Simrad multibeam vendor format
0796_20100721_163859_Celticvoyager.all.mb56.gz 143.22MB Simrad multibeam vendor format
0797_20100721_165915_Celticvoyager.all.mb56.gz 294.86MB Simrad multibeam vendor format
0798_20100721_173511_Celticvoyager.all.mb56.gz 232.62MB Simrad multibeam vendor format
0799_20100721_181521_Celticvoyager.all.mb56.gz 101.61MB Simrad multibeam vendor format
0800_20100721_183312_Celticvoyager.all.mb56.gz 103.20MB Simrad multibeam vendor format
0801_20100721_185751_Celticvoyager.all.mb56.gz 112.02MB Simrad multibeam vendor format
0802_20100721_191605_Celticvoyager.all.mb56.gz 127.17MB Simrad multibeam vendor format
0803_20100721_193612_Celticvoyager.all.mb56.gz 116.61MB Simrad multibeam vendor format
0804_20100721_195649_Celticvoyager.all.mb56.gz 97.63MB Simrad multibeam vendor format
0805_20100721_202029_Celticvoyager.all.mb56.gz 136.65MB Simrad multibeam vendor format
0806_20100721_213117_Celticvoyager.all.mb56.gz 112.27MB Simrad multibeam vendor format
0807_20100721_220219_Celticvoyager.all.mb56.gz 148.19MB Simrad multibeam vendor format
0808_20100721_223758_Celticvoyager.all.mb56.gz 113.14MB Simrad multibeam vendor format
0809_20100721_230810_Celticvoyager.all.mb56.gz 186.19MB Simrad multibeam vendor format
0810_20100721_235346_Celticvoyager.all.mb56.gz 171.87MB Simrad multibeam vendor format
0811_20100722_003640_Celticvoyager.all.mb56.gz 244.20MB Simrad multibeam vendor format
0812_20100722_013725_Celticvoyager.all.mb56.gz 280.06MB Simrad multibeam vendor format
0813_20100722_024628_Celticvoyager.all.mb56.gz 293.51MB Simrad multibeam vendor format
0814_20100722_035824_Celticvoyager.all.mb56.gz 33.62MB Simrad multibeam vendor format
0815_20100722_050845_Celticvoyager.all.mb56.gz 490.81MB Simrad multibeam vendor format
0816_20100722_062907_Celticvoyager.all.mb56.gz 474.80MB Simrad multibeam vendor format
0817_20100722_075235_Celticvoyager.all.mb56.gz 400.00MB Simrad multibeam vendor format
0818_20100722_092553_Celticvoyager.all.mb56.gz 295.44MB Simrad multibeam vendor format
0819_20100722_103230_Celticvoyager.all.mb56.gz 320.65MB Simrad multibeam vendor format
0820_20100722_115032_Celticvoyager.all.mb56.gz 299.73MB Simrad multibeam vendor format
0821_20100722_130521_Celticvoyager.all.mb56.gz 248.20MB Simrad multibeam vendor format
0822_20100722_140713_Celticvoyager.all.mb56.gz 225.52MB Simrad multibeam vendor format
0823_20100722_150506_Celticvoyager.all.mb56.gz 201.40MB Simrad multibeam vendor format
0824_20100722_155109_Celticvoyager.all.mb56.gz 153.20MB Simrad multibeam vendor format
0825_20100722_163353_Celticvoyager.all.mb56.gz 183.13MB Simrad multibeam vendor format
0826_20100722_170715_Celticvoyager.all.mb56.gz 141.08MB Simrad multibeam vendor format
0827_20100722_173656_Celticvoyager.all.mb56.gz 114.12MB Simrad multibeam vendor format
0828_20100722_175753_Celticvoyager.all.mb56.gz 83.94MB Simrad multibeam vendor format
0829_20100722_181440_Celticvoyager.all.mb56.gz 105.95MB Simrad multibeam vendor format
0830_20100722_185438_Celticvoyager.all.mb56.gz 238.91MB Simrad multibeam vendor format
0831_20100722_193023_Celticvoyager.all.mb56.gz 240.04MB Simrad multibeam vendor format
0832_20100722_200538_Celticvoyager.all.mb56.gz 117.06MB Simrad multibeam vendor format
0833_20100722_202748_Celticvoyager.all.mb56.gz 408.69MB Simrad multibeam vendor format
0834_20100722_213830_Celticvoyager.all.mb56.gz 258.31MB Simrad multibeam vendor format
0835_20100722_224453_Celticvoyager.all.mb56.gz 399.63MB Simrad multibeam vendor format
0836_20100723_002137_Celticvoyager.all.mb56.gz 381.09MB Simrad multibeam vendor format
0837_20100723_015445_Celticvoyager.all.mb56.gz 358.94MB Simrad multibeam vendor format
0838_20100723_032431_Celticvoyager.all.mb56.gz 342.53MB Simrad multibeam vendor format
0839_20100723_053404_Celticvoyager.all.mb56.gz 230.06MB Simrad multibeam vendor format
0840_20100723_062112_Celticvoyager.all.mb56.gz 481.63MB Simrad multibeam vendor format
0841_20100723_071446_Celticvoyager.all.mb56.gz 506.19MB Simrad multibeam vendor format
0842_20100723_081124_Celticvoyager.all.mb56.gz 20.46MB Simrad multibeam vendor format
0843_20100723_081818_Celticvoyager.all.mb56.gz 469.65MB Simrad multibeam vendor format
0844_20100723_092500_Celticvoyager.all.mb56.gz 379.28MB Simrad multibeam vendor format
0845_20100723_100711_Celticvoyager.all.mb56.gz 164.35MB Simrad multibeam vendor format
0846_20100723_102848_Celticvoyager.all.mb56.gz 260.27MB Simrad multibeam vendor format
0847_20100723_110229_Celticvoyager.all.mb56.gz 286.96MB Simrad multibeam vendor format
0848_20100723_114008_Celticvoyager.all.mb56.gz 49.53MB Simrad multibeam vendor format
0849_20100723_115350_Celticvoyager.all.mb56.gz 533.15MB Simrad multibeam vendor format
0850_20100723_212809_Celticvoyager.all.mb56.gz 564.64MB Simrad multibeam vendor format
0851_20100723_235633_Celticvoyager.all.mb56.gz 456.28MB Simrad multibeam vendor format
0852_20100724_015334_Celticvoyager.all.mb56.gz 864.33MB Simrad multibeam vendor format
0853_20100724_052826_Celticvoyager.all.mb56.gz 303.49MB Simrad multibeam vendor format
0854_20100724_094443_Celticvoyager.all.mb56.gz 343.64MB Simrad multibeam vendor format
0855_20100724_104350_Celticvoyager.all.mb56.gz 231.78MB Simrad multibeam vendor format
0856_20100724_112600_Celticvoyager.all.mb56.gz 235.33MB Simrad multibeam vendor format
0857_20100724_121011_Celticvoyager.all.mb56.gz 178.17MB Simrad multibeam vendor format
0858_20100724_124657_Celticvoyager.all.mb56.gz 210.40MB Simrad multibeam vendor format
0859_20100724_132843_Celticvoyager.all.mb56.gz 180.43MB Simrad multibeam vendor format
0860_20100724_140542_Celticvoyager.all.mb56.gz 249.45MB Simrad multibeam vendor format
0861_20100724_145720_Celticvoyager.all.mb56.gz 35.56MB Simrad multibeam vendor format
0862_20100724_151312_Celticvoyager.all.mb56.gz 179.96MB Simrad multibeam vendor format
0863_20100724_154919_Celticvoyager.all.mb56.gz 88.10MB Simrad multibeam vendor format
0864_20100724_160745_Celticvoyager.all.mb56.gz 192.04MB Simrad multibeam vendor format
0865_20100724_164650_Celticvoyager.all.mb56.gz 49.91MB Simrad multibeam vendor format
0866_20100724_165833_Celticvoyager.all.mb56.gz 74.02MB Simrad multibeam vendor format
0867_20100724_171126_Celticvoyager.all.mb56.gz 100.28MB Simrad multibeam vendor format
0868_20100724_173202_Celticvoyager.all.mb56.gz 18.52MB Simrad multibeam vendor format
0869_20100724_182847_Celticvoyager.all.mb56.gz 477.36MB Simrad multibeam vendor format
0870_20100724_203238_Celticvoyager.all.mb56.gz 242.54MB Simrad multibeam vendor format
0871_20100724_213807_Celticvoyager.all.mb56.gz 237.99MB Simrad multibeam vendor format
0872_20100724_223449_Celticvoyager.all.mb56.gz 704.06MB Simrad multibeam vendor format
0873_20100725_012418_Celticvoyager.all.mb56.gz 537.16MB Simrad multibeam vendor format
0874_20100725_034141_Celticvoyager.all.mb56.gz 572.21MB Simrad multibeam vendor format
0875_20100725_060006_Celticvoyager.all.mb56.gz 529.98MB Simrad multibeam vendor format
0876_20100725_080541_Celticvoyager.all.mb56.gz 634.61MB Simrad multibeam vendor format
0877_20100725_103059_Celticvoyager.all.mb56.gz 555.54MB Simrad multibeam vendor format
0878_20100725_124953_Celticvoyager.all.mb56.gz 569.81MB Simrad multibeam vendor format
0879_20100725_151137_Celticvoyager.all.mb56.gz 185.32MB Simrad multibeam vendor format
0880_20100725_160258_Celticvoyager.all.mb56.gz 278.43MB Simrad multibeam vendor format
0881_20100725_171316_Celticvoyager.all.mb56.gz 549.35MB Simrad multibeam vendor format
0882_20100725_193342_Celticvoyager.all.mb56.gz 623.47MB Simrad multibeam vendor format
0883_20100725_215918_Celticvoyager.all.mb56.gz 566.63MB Simrad multibeam vendor format
0884_20100726_001207_Celticvoyager.all.mb56.gz 607.18MB Simrad multibeam vendor format
0885_20100726_023708_Celticvoyager.all.mb56.gz 639.22MB Simrad multibeam vendor format
0886_20100726_050301_Celticvoyager.all.mb56.gz 606.97MB Simrad multibeam vendor format
0887_20100726_071913_Celticvoyager.all.mb56.gz 648.88MB Simrad multibeam vendor format
0888_20100726_093632_Celticvoyager.all.mb56.gz 301.62MB Simrad multibeam vendor format

Metadata Files: 1

Files File Size Description
CV10_02_Multibeam.xml NGDC created ISO metadata